Voltar ao catálogo

COSMOS 505

AtivoMilitarLEO
NORAD 6118·PAYLOAD·🇷🇺 Russia

Lançado Jul 20, 1972 de Plesetsk Cosmodrome

Loading…

Próximas Passagens (próximas 24 horas)

TLE

AtualizadoSource: Space-Track

Época: Sep 14, 2026, 13:57 UTC

1 06118U 72057B   26257.58178208 -.00000024  00000-0 -46041-4 0  9995
2 06118  74.0242  92.1112 0092122  68.2055 308.1798 12.59823489490331

Acompanhe COSMOS 505 em tempo real com AllMySat

Download on the App Store